Retour au catalogue

STARLINK-36701

ActifCommunicationsSSO
NORAD 67658·PAYLOAD·🇺🇸 United States

Lancé Feb 2, 2026 depuis Vandenberg Space Force Base

Loading…

Prochains Passages (prochaines 24 heures)

TLE

FraisSource: CelesTrak SupGP

Époque: Sep 15, 2026, 03:35 UTC

1 67658C 26022L   26258.14979167 -.00038660  00000+0 -12002-2 0  2580
2 67658  97.2839 289.7653 0001164  91.7861 340.3639 15.33457610    10

Suivez STARLINK-36701 en temps réel avec AllMySat

Download on the App Store